Kirksville, MO

5:35 AM CDT on April 29, 2017 (GMT -0500)
Kirksville Regional

Weather History for KIRK - March, 2013

Change the Weather History Date:

Wednesday, March 6, 2013

  Actual Average Record
Temperature  
Mean Temperature 25 °F 36 °F  
Max Temperature 33 °F 46 °F 74 °F (2012)
Min Temperature 17 °F 27 °F -9 °F (1960)
Degree Days  
Heating Degree Days 40 28  
Month to date heating degree days 236 177  
Since 1 July heating degree days 4616 4710  
Cooling Degree Days 0 0  
Month to date cooling degree days 0 0  
Year to date cooling degree days 0 0  
Moisture  
Dew Point 18 °F    
Average Humidity 68    
Maximum Humidity 84    
Minimum Humidity 51    
Precipitation  
Precipitation 0.00 in 0.08 in 1.34 in (1961)
Month to date precipitation 0.15 0.48  
Year to date precipitation 5.60 3.28  
Sea Level Pressure  
Sea Level Pressure 30.38 in    
Wind  
Wind Speed 8 mph (North)    
Max Wind Speed 18 mph    
Max Gust Speed 23 mph    
Visibility 10 miles    
Events      
T = Trace of Precipitation, MM = Missing Value Source: NWS Daily Summary

Daily Weather History Graph

Daily Weather History Graph

Search for Another Location

Airport or City:

Trip Planner

Search our weather history database for the weather conditions in past years. The results will help you decide how hot, cold, wet, or windy it might be!

Date:

Astronomy

Mar. 06, 2013 Rise Set
Actual Time 6:35 AM CST 6:07 PM CST
Civil Twilight 6:08 AM CST 6:34 PM CST
Nautical Twilight 5:37 AM CST 7:06 PM CST
Astronomical Twilight 5:05 AM CST 7:37 PM CST
Moon 2:45 AM CST (3/6) 12:50 PM CST (3/6)
Length of Visible Light 12h 26m
Length of Day
11h 32m
Waning Crescent, 29% of the Moon is Illuminated
Mar 6
Waning Crescent
Mar 11
New
Mar 19
First Quarter
Mar 27
Full
Apr 2
Last Quarter

Hourly Weather History & Observations

Time (CST) Temp. Windchill Dew Point Humidity Pressure Visibility Wind Dir Wind Speed Gust Speed Precip Events Conditions
12:20 AM 26.6 °F 15.7 °F 19.4 °F 74% 30.24 in 10.0 mi NW 12.7 mph 19.6 mph N/A   Overcast
12:55 AM 27.0 °F 15.2 °F 19.0 °F 72% 30.30 in 10.0 mi NNW 15.0 mph 21.9 mph N/A   Overcast
1:55 AM 27.0 °F 16.1 °F 19.9 °F 75% 30.32 in 10.0 mi NW 12.7 mph 18.4 mph N/A   Overcast
2:55 AM 26.1 °F 14.5 °F 19.9 °F 78% 30.32 in 10.0 mi NW 13.8 mph - N/A   Overcast
3:25 AM 26.6 °F 16.2 °F 21.2 °F 80% 30.29 in 10.0 mi NW 11.5 mph 19.6 mph N/A   Mostly Cloudy
3:55 AM 27.0 °F 16.7 °F 19.9 °F 75% 30.35 in 10.0 mi NW 11.5 mph - N/A   Overcast
4:55 AM 26.1 °F 15.0 °F 18.0 °F 71% 30.37 in 10.0 mi NNW 12.7 mph 19.6 mph N/A   Overcast
5:55 AM 26.1 °F 15.6 °F 17.1 °F 69% 30.39 in 10.0 mi NNW 11.5 mph 19.6 mph N/A   Overcast
6:55 AM 26.1 °F 16.8 °F 18.0 °F 71% 30.40 in 10.0 mi NNW 9.2 mph - N/A   Overcast
7:55 AM 26.1 °F 15.0 °F 18.0 °F 71% 30.42 in 10.0 mi North 12.7 mph - N/A   Overcast
8:55 AM 26.1 °F 15.6 °F 17.1 °F 69% 30.43 in 10.0 mi North 11.5 mph - N/A   Overcast
9:55 AM 28.0 °F 18.1 °F 19.0 °F 69% 30.44 in 10.0 mi NNW 11.5 mph - N/A   Overcast
10:55 AM 28.9 °F 21.1 °F 19.0 °F 67% 30.43 in 10.0 mi NNW 8.1 mph - N/A   Mostly Cloudy
11:18 AM 28.4 °F 19.1 °F 19.4 °F 69% 30.38 in 10.0 mi North 10.4 mph - N/A   Partly Cloudy
11:55 AM 28.9 °F 20.4 °F 19.0 °F 67% 30.43 in 10.0 mi NNW 9.2 mph - N/A   Clear
12:55 PM 30.0 °F 23.2 °F 19.0 °F 64% 30.42 in 10.0 mi North 6.9 mph - N/A   Clear
1:55 PM 30.9 °F 26.2 °F 18.0 °F 59% 30.40 in 10.0 mi Variable 4.6 mph - N/A   Clear
2:55 PM 32.0 °F 26.4 °F 18.0 °F 56% 30.40 in 10.0 mi North 5.8 mph - N/A   Clear
3:55 PM 33.1 °F 28.7 °F 18.0 °F 54% 30.39 in 10.0 mi NNW 4.6 mph - N/A   Clear
4:55 PM 32.0 °F 27.5 °F 19.0 °F 59% 30.39 in 10.0 mi WNW 4.6 mph - N/A   Clear
5:55 PM 28.0 °F 22.8 °F 19.0 °F 69% 30.39 in 10.0 mi NE 4.6 mph - N/A   Clear
6:55 PM 25.0 °F 20.7 °F 18.0 °F 75% 30.39 in 10.0 mi NNE 3.5 mph - N/A   Clear
7:55 PM 25.0 °F 20.7 °F 17.1 °F 72% 30.38 in 10.0 mi NE 3.5 mph - N/A   Clear
8:55 PM 19.0 °F - 15.1 °F 85% 30.38 in 10.0 mi Calm Calm - N/A   Clear
9:55 PM 21.0 °F 16.2 °F 16.0 °F 81% 30.39 in 10.0 mi ENE 3.5 mph - N/A   Clear
10:55 PM 19.9 °F 13.4 °F 16.0 °F 85% 30.39 in 10.0 mi ENE 4.6 mph - N/A   Clear
11:55 PM 18.0 °F 12.7 °F 14.0 °F 84% 30.39 in 9.0 mi ENE 3.5 mph - N/A   Clear